www.pogodaiklimat.ru

Погода и климат >> Архив погоды >> Индия >> округ Дели >> Нью-Дели


АРХИВ ПОГОДЫ в Нью-Дели

Время (UTC), дата Ветер
(напр.,м/с)
 
Видим.   Явления Облачность Т
(С)
Тd
(С)
f
(%)
Тe
(С)
Тes
(С)
Комфортность P
(гПа)
Po
(гПа)
Тmin
(С)
Tmax
(С)
R
(мм)
R24
(мм)
S
(см)
09 19.03 З 2 4000 м мгла ясно +30.6 +15.0 39 +33 +45 душно 1008.5 984.3
12 19.03 З 1 4000 м мгла ясно +30.2 +16.1 43 +33 +34 душно 1007.2 983.0 +31.8
15 19.03 штиль 0 2000 м дымка ясно +21.6 +17.4 77 +26 +26 душно 1009.0 984.0
18 19.03 штиль 0 2000 м дымка 1/0
[Ac trans]
+19.2 +16.9 87 +21 +21 комфорт 1009.3 984.1
21 19.03 штиль 0 2000 м дымка 1/0
[Ac trans]
+18.0 +16.3 90 +18 +18 по сезону 1008.3 983.1
00 20.03 штиль 0 2000 м дымка 5/3 1200 м
[Sc Ac trans]
+17.0 +15.3 90 +17 +17 по сезону 1007.8 982.5
03 20.03 ЮВ 2 2000 м мгла 5/3 1200 м
[Sc Ac trans]
+22.2 +15.2 65 +26 +29 душно 1009.2 984.3 +15.5 +31.8
06 20.03 Ю 4 2000 м мгла 5/3 1200 м
[Sc Ac trans]
+30.6 +17.0 44 +34 +41 очень
душно
1009.1 984.9
09 20.03 ЮЗ 3 2000 м мгла 5/3 1200 м
[Sc Ac trans]
+34.0 +18.4 40 +39 +44 очень
душно
1006.3 982.4
12 20.03 З 1 2000 м мгла 6/4 1050 м
[Cb calv Ac trans]
+31.2 +13.7 34 +32 +33 жарко 1005.8 981.7 +34.1
15 20.03 СВ 2 2000 м мгла 6/3 1200 м
[Sc Ac trans]
+26.2 +16.1 54 +30 +30 душно 1008.7 984.1
18 20.03 штиль 0 2000 м мгла 6/3 1200 м
[Sc Ac trans]
+21.8 +16.9 74 +26 +26 душно 1010.3 985.3
21 20.03 штиль 0 2000 м дымка 6/3 1200 м
[Sc Ac trans]
+20.8 +16.2 75 +24 +24 комфорт 1009.8 984.8
00 21.03 СЗ 2 2000 м дымка 4/0
[Ac trans]
+18.4 +15.0 81 +20 +20 тепло 1010.2 984.9
03 21.03 З 2 2000 м мгла ясно +21.0 +14.9 68 +25 +30 комфорт 1013.1 988.0 +16.6 +34.1
06 21.03 С 2 2000 м мгла 6/3 1200 м
[Sc Ac trans Ci fib]
+29.8 +10.6 30 +30 +39 жарко 1013.3 988.9
09 21.03 СВ 1 4000 м мгла 1/0
[Ci fib]
+31.4 +9.0 25 +31 +45 жарко 1010.7 986.5
12 21.03 С 2 4000 м мгла 4/3 1200 м
[Sc As op Ci fib]
+28.8 +12.9 38 +30 +31 жарко 1010.4 986.0 +31.6
15 21.03 штиль 0 2000 м мгла 3/0
[Ac trans]
+24.6 +14.9 55 +27 +27 жарко 1012.5 987.7
18 21.03 штиль 0 2000 м мгла 4/3 1200 м
[Sc Ac trans]
+21.6 +14.1 62 +24 +24 комфорт 1013.7 988.6
21 21.03 штиль 0 2000 м мгла 4/3 1200 м
[Sc Ac trans]
+21.4 +10.9 51 +23 +23 комфорт 1012.9 987.8
00 22.03 штиль 0 2000 м мгла 3/0
[Ac trans]
+17.6 +11.8 69 +18 +18 по сезону 1013.4 988.0
03 22.03 З 2 2000 м мгла ясно +20.4 +11.4 56 +23 +28 комфорт 1015.4 990.2 +15.5 +31.6
06 22.03 З 4 4000 м мгла ясно +28.0 +9.3 31 +28 +39 жарко 1015.6 991.0
09 22.03 З 7 4000 м мгла ясно +29.8 +7.5 25 +29 +32 жарко 1013.2 988.8
12 22.03 З 4 4000 м мгла ясно +27.6 +9.7 33 +28 +29 жарко 1012.4 987.9 +30.2
15 22.03 З 2 2000 м мгла ясно +22.6 +12.4 52 +25 +25 комфорт 1014.0 989.0
18 22.03 З 3 2000 м мгла 3/0
[Ac trans]
+19.4 +13.5 69 +21 +21 комфорт 1014.7 989.4
21 22.03 З 3 2000 м мгла 3/0
[Ac trans]
+18.4 +12.3 68 +19 +19 по сезону 1014.1 988.7
00 23.03 З 3 2000 м мгла ясно +18.2 +12.1 68 +19 +19 по сезону 1013.6 988.2
03 23.03 З 2 4000 м мгла ясно +20.6 +11.6 56 +23 +29 комфорт 1014.6 989.4 +16.6 +30.2
06 23.03 З 7 4000 м мгла 4/1 1200 м
[Sc Ac trans]
+27.6 +10.7 35 +28 +32 жарко 1013.9 989.3
09 23.03 З 6 4000 м мгла ясно +30.0 +10.9 31 +30 +35 жарко 1011.3 987.0
12 23.03 З 3 4000 м мгла ясно +28.0 +10.8 34 +29 +29 жарко 1010.8 986.3 +30.3
15 23.03 СЗ 2 2000 м мгла ясно +24.0 +13.8 53 +26 +26 жарко 1012.3 987.5
18 23.03 СЗ 2 2000 м ясно +22.2 +13.6 58 +25 +25 комфорт 1013.0 988.0
00 24.03 З 2 2000 м мгла ясно +16.8 +11.3 70 +17 +17 по сезону 1011.6 986.2
03 24.03 З 3 2000 м мгла ясно +20.2 +12.0 59 +22 +27 комфорт 1013.5 988.3 +15.4 +30.3
06 24.03 З 3 2000 м мгла ясно +28.6 +12.2 36 +30 +44 жарко 1012.8 988.3
09 24.03 З 3 4000 м мгла ясно +31.8 +12.7 31 +32 +44 жарко 1009.8 985.6
12 24.03 СЗ 3 4000 м мгла ясно +29.2 +14.8 42 +32 +32 душно 1009.2 984.9 +32.1
15 24.03 СЗ 2 2000 м мгла 5/3 1200 м
[Sc Ac trans]
+24.4 +18.1 68 +29 +29 душно 1010.6 985.8
18 24.03 СЗ 2 2000 м дымка 5/3 1200 м
[Sc Ac trans]
+21.6 +17.4 77 +26 +26 душно 1010.8 985.8
21 24.03 З 2 2000 м дымка 5/3 1200 м
[Sc Ac trans]
+19.6 +15.9 79 +22 +22 комфорт 1010.7 985.5
00 25.03 З 2 2000 м дымка 9/4 1050 м
[Sc Ac trans]
+18.8 +15.1 79 +21 +21 комфорт 1011.2 986.0
03 25.03 З 3 2000 м дымка 8/4 1200 м
[Sc Ac trans]
+20.0 +15.3 74 +23 +24 комфорт 1013.3 988.1 +17.6 +32.1
06 25.03 СЗ 2 4000 м мгла 5/3 1050 м
[Sc Ac trans]
+27.2 +15.0 47 +30 +40 душно 1012.7 988.1
09 25.03 З 3 4000 м мгла 4/3 1200 м
[Sc Ac trans]
+30.2 +13.1 35 +31 +38 жарко 1010.1 985.8
12 25.03 С 3 4000 м мгла 3/0
[Ac trans]
+27.4 +16.1 50 +31 +31 душно 1010.5 986.0 +30.4
15 25.03 С 1 2000 м мгла 1/1 1200 м
[Sc]
+23.2 +14.4 58 +27 +27 душно 1012.6 987.7
18 25.03 штиль 0 2000 м мгла 1/1 1200 м
[Sc]
+20.4 +15.7 74 +23 +23 комфорт 1013.3 988.1
21 25.03 штиль 0 2000 м дымка ясно +18.2 +15.5 84 +18 +18 прохладно 1012.2 986.9
00 26.03 штиль 0 2000 м дымка ясно +17.6 +14.1 80 +18 +18 по сезону 1013.1 987.7
03 26.03 З 1 2000 м мгла ясно +20.4 +13.8 66 +24 +30 комфорт 1014.0 988.8 +16.2 +30.4
06 26.03 З 4 4000 м мгла ясно +27.2 +15.8 50 +30 +42 душно 1014.2 989.6

 

Местоположение метеостанции Нью-Дели (округ Дели, Индия): широта 28.58 долгота 77.20 высота над уровнем моря 216 м.

В архиве по умолчанию представлена погода в Нью-Дели за последнюю неделю. Архивные данные за месяц целиком и за предыдущие месяцы, начиная с января 2011 года, Вы можете получить, выбрав интересующий диапазон дат из раскрывающегося списка и нажав кнопку "Ввод!".


*Определитесь, кто Вы:
робот инопланетянин человек

Внимание! Время в таблицах - всемирное. Для получения местного времени необходимо прибавить поправку, которая равна 5.5 ч.

Смотрите также архив погоды в соседних городах и на ближайших метеорологических станциях:

Погода в Нью-Дели аэропорт (округ Дели, Индия) (8 км)
Погода в Ридже (округ Дели, Индия) (10 км)
Погода в Нью-Дели Айя Нагар (округ Дели, Индия) (13 км)
Погода в Рохтаке (Харьяна, Индия) (67 км)
Погода в Мератхе (Уттар-Прадеш, Индия) (70 км)
Погода в Карнале (Харьяна, Индия) (126 км)
Погода в Хисаре (Харьяна, Индия) (157 км)
Погода в Пилани (Раджастхан, Индия) (161 км)
Погода в Нейджибабаде (Уттар-Прадеш, Индия) (163 км)
Погода в Агре (Уттар-Прадеш, Индия) (176 км)

Пояснения к столбцам:

Ветер - указаны скорость ветра в м/с - средняя за 10 мин, порывы в срок и между сроками (в фигурных скобках) и направление, откуда дует ветер: С - северный, СВ - северо-восточный, В - восточный, ЮВ - юго-восточный, Ю - южный, ЮЗ - юго-западный, З - западный, СЗ - северо-западный.
Видимость - горизонтальная дальность видимости в метрах или километрах. При видимости от 1 до 10 км при отсутствии осадков обычно наблюдается дымка, при ухудшении видимости до 1 км и менее - туман. В сухую погоду видимость может ухудшаться дымом, пылью или мглою.
Явления - указаны атмосферные явления, наблюдавшиеся в срок или в последний час перед сроком; фигурными скобками обозначены явления, наблюдавшиеся между сроками (за 1-3 часа до срока); квадратными скобками обозначены град или гололедные отложения с указанием их диаметра в мм.
Облачность - указаны через наклонную черту общая и нижняя облачность в баллах и высота нижней границы облаков в метрах; квадратными скобками обозначены формы облаков: Ci - перистые, Cs - перисто-слоистые, Cc - перисто-кучевые, Ac - высококучевые, As - высокослоистые, Sc - слоисто-кучевые, Ns - слоисто-дождевые, Cu - кучевые, Cb - кучево-дождевые. Подробнее классификацию облаков см. в Атласе облаков (PDF).
T - Температура воздуха - температура, измеренная на высоте 2 м над землей.
Td - Температура точки росы - температура, при понижении до которой содержащийся в воздухе водяной пар достигнет насыщения.
f - Относительная влажность воздуха - влажноcть воздуха, измеренная на высоте 2 м над землей.
Te - Эффективная температура - температура, которую ощущает одетый по сезону человек в тени. Характеристика душности погоды. При расчете учитывается влияние влажности воздуха и скорости ветра на теплоощущения человека.
Tes - Эффективная температура на солнце - температура, которую ощущает человек, с поправкой на солнечный нагрев. Характеристика знойности погоды. Зависит от высоты солнца над горизонтом, облачности и скорости ветра. Ночью, в пасмурную погоду, а также при ветре 12 м/с и более поправка равна нулю.
P - Атмосферное давление - приведенное к уровню моря атмосферное давление.
Po - Атмосферное давление - измеренное на уровне метеостанции атмосферное давление.
Tmin - Минимальная температура - минимум температуры воздуха на высоте 2 м над землей.
Tmax - Максимальная температура - максимум температуры воздуха на высоте 2 м над землей.
R - Количество осадков - Количество выпавших осадков за период времени, мм. При наведении курсора мыши на число - период времени, за который выпало указанное количество осадков.
R24 - Количество осадков - Количество выпавших осадков за 24 часа, мм.
S - Снежный покров - Высота снежного покрова, см. При наведении курсора мыши на число - состояние снежного покрова и степень покрытия местности в баллах.